Regional Weather Roundup
Issued by NWS Cleveland, OH

Home | Current Version | Previous Version | Graphics & Text | Print | Product List | Glossary On
Versions: 1 2 3 4 5 6 7 8 9 10 11 12 13 14 15 16 17 18 19 20 21 22 23 24 25 26 27 28 29 30 31 32 33 34 35 36 37 38 39 40 41 42 43 44 45 46 47 48 49 50
000
ASUS41 KCLE 231110
RWRCLE
OHIO REGIONAL WEATHER ROUNDUP
NATIONAL WEATHER SERVICE WILMINGTON, OH
700 AM EDT TUE SEP 23 2014

NOTE: "FAIR" INDICATES FEW OR NO CLOUDS BELOW 12,000 FEET WITH NO
SIGNIFICANT WEATHER AND/OR OBSTRUCTIONS TO VISIBILITY.

OHZ001>008-015>018-024>027-034-035-043-044-231200-
   NORTHWEST OHIO

CITY           SKY/WX    TMP DP  RH WIND       PRES   REMARKS
DEFIANCE       CLEAR      1  32 100 CALM      30.33R
FINDLAY        CLEAR     43  39  86 CALM      30.31R
TOLEDO EXPRESS CLEAR     41  40  96 CALM      30.32R
TOLEDO METCALF FAIR      44  40  85 CALM      30.33R
LIMA           CLEAR     43  40  89 CALM      30.32R
$$

OHZ009>014-019>023-028>033-038-089-231200-
   NORTHEAST OHIO

CITY           SKY/WX    TMP DP  RH WIND       PRES   REMARKS
CLE-HOPKINS    PTCLDY    43  40  89 S3        30.35R
CLE-LAKEFRONT  CLEAR     47  41  80 SE9       30.32R
CUY CO. ARPT   NOT AVBL
LORAIN-ELYRIA  CLEAR     44  40  85 CALM      30.34R
ASHTABULA      CLEAR     40  38  93 CALM      30.33R
AKRON-CANTON   CLEAR     44  39  82 CALM      30.33R
WOOSTER        FOG       36  34  92 CALM      30.35R VSB 1/2
MANSFIELD      CLEAR     44  41  89 CALM      30.33R
YOUNGSTOWN     CLEAR     36  35  96 CALM      30.33R
$$

OHZ042-051>053-060>062-070>072-077>081-231200-
  SOUTHWEST OHIO

CITY           SKY/WX    TMP DP  RH WIND       PRES   REMARKS
CINC-COVINGTON CLEAR     49  44  83 NE3       30.31R
CINC-LUNKEN    PTCLDY    41  41 100 NE3       30.34R FOG
HAMILTON       CLEAR     39  38  96 CALM      30.34R
DAYTON         CLEAR     45  41  86 CALM      30.33R
WRIGHT-PAT AFB CLEAR     42  40  91 W2        30.33R
DAYTON GENERAL CLEAR     42  40  92 NE5       30.32R
WILMINGTON     CLEAR     41  37  86 SE3       30.32R
$$

OHZ036-037-039>041-045>050-054>059-063>069-073>076-082>088-231200-
  CENTRAL AND SOUTHEAST OHIO

CITY           SKY/WX    TMP DP  RH WIND       PRES   REMARKS
COLUMBUS       CLEAR     46  41  82 CALM      30.32R
OSU AIRPORT    CLEAR     41  40  96 E5        30.32R
BOLTON FIELD     N/A     39  39 100 CALM      30.33R FOG
RICKENBACK AFB CLEAR     39  38  95 CALM      30.32S
NEWARK         CLEAR     37  35  92 CALM      30.33R FOG
MARION         CLEAR     40  37  89 CALM      30.32R
LANCASTER      CLEAR     38  35  89 CALM      30.33R
ZANESVILLE     CLEAR     37  34  89 CALM      30.34R
NEW PHILLY     FOG       40  40 100 CALM      30.35R VSB 1/4
$$


USA.gov is the U.S. government's official web portal to all federal, state and local government web resources and services.